Location: Camerons Lookout
(40.9833°S, 175.9333°E)
Time: 20:51:21
(UTC+00:00)

PAYLOAD B - Pass Details

Date: 14 January 2026
Orbit: 848 x 869 km, 99.0° (Epoch: 17 February)

Event Time Altitude Azimuth Distance (km) Brightness Sun altitude
Rises 09:14:03 0° 165° (SSE) 3,451 7.8 -13.6°
Reaches altitude 10° 09:16:27 10° 162° (SSE) 2,507 7.0 -13.9°
Maximum altitude 09:22:01 73° 77° (ENE) 898 4.2 -14.6°
Drops below altitude 10° 09:27:31 10° 352° (N) 2,477 6.3 -15.3°
Enters shadow 09:28:02 - 351° (N) 2,682 6.4 -15.4°
